Regional Weather Roundup
Issued by NWS

Home | Current Version | Previous Version | Graphics & Text | Print | Product List | Glossary On
Versions: 1 2 3 4 5 6 7 8 9 10 11 12 13 14 15 16 17 18 19 20 21 22 23 24 25 26 27 28 29 30 31 32 33 34 35 36 37 38 39 40 41 42 43 44 45 46 47 48 49 50
000
ASUS43 KOAX 232210
RWRNE

WEATHER ROUNDUP FOR NEBRASKA
NATIONAL WEATHER SERVICE OMAHA NE
500 PM CDT WED JUL 23 2014

NOTES: SATELLITE DATA IS BEING USED TO AUGMENT CLOUD COVER ABOVE
       12000 FEET.
       "FAIR" INDICATES FEW OR NO CLOUDS BELOW 12,000 FEET WITH NO
       SIGNIFICANT WEATHER AND/OR OBSTRUCTIONS TO VISIBILITY.

  * THESE STATIONS DO NOT REPORT WEATHER SUCH AS RAIN...SNOW OR FOG.

NEZ001>004-019>022-054>056-232300-
NEBRASKA PANHANDLE

CITY           SKY/WX    TMP DP  RH WIND       PRES   REMARKS
SCOTTSBLUFF    SUNNY     90  63  40 S14       30.17F HX  91
ALLIANCE       SUNNY     93  62  35 S18G26    30.17F HX  93
CHADRON        SUNNY     94  59  31 S15G26    30.11F HX  93
KIMBALL        SUNNY     87  62  43 S22G28    30.23F
SIDNEY         SUNNY     92  62  36 S23G31    30.21F HX  92
$$

NEZ057>060-069>072-079>082-232300-
SOUTHWEST NEBRASKA

CITY           SKY/WX    TMP DP  RH WIND       PRES   REMARKS
NORTH PLATTE   SUNNY     82  63  52 E14       30.18F
IMPERIAL       SUNNY     94  58  29 S12       30.16F HX  93
LEXINGTON      SUNNY     83  61  48 SE9       30.19F
MCCOOK         SUNNY     85  65  51 SE10      30.17F
OGALLALA       SUNNY     91  57  31 S10G17    30.18S HX  90
$$

NEZ005>010-023>029-035>040-094-232300-
NORTH CENTRAL NEBRASKA

CITY           SKY/WX    TMP DP  RH WIND       PRES   REMARKS
VALENTINE      SUNNY     87  59  38 SE16      30.18F
AINSWORTH      SUNNY     83  56  38 SE12G17   30.20F
BROKEN BOW     SUNNY     83  60  45 SE9       30.20F
O`NEILL        SUNNY     83  53  35 SE9       30.21F
ORD            SUNNY     82  57  42 E9        30.18F
THEDFORD       SUNNY     86  59  40 SE12      30.21F
$$

NEZ041-046>049-061>064-073>077-083>087-232300-
SOUTH CENTRAL NEBRASKA

CITY           SKY/WX    TMP DP  RH WIND       PRES   REMARKS
GRAND ISLAND   SUNNY     83  60  45 E13       30.17F
AURORA         SUNNY     83  62  48 E10G16    30.17F
HASTINGS       MOSUNNY   83  59  44 E9        30.17F
HEBRON         MOSUNNY   84  55  36 E9        30.15F
HOLDREGE       SUNNY     81  60  49 E5        30.19S
KEARNEY *      SUNNY     82  63  51 E13       30.18F
YORK           SUNNY     82  59  44 E12       30.18F
$$

NEZ011>018-030>034-042>045-232300-
NORTHEAST NEBRASKA

CITY           SKY/WX    TMP DP  RH WIND       PRES   REMARKS
NORFOLK        SUNNY     84  57  39 E9        30.19F
ALBION         SUNNY     82  56  41 E6        30.20F
BLAIR          SUNNY     83  55  38 NE8       30.17F HAZE
COLUMBUS *     SUNNY     82  59  44 E6        30.19F
FREMONT        SUNNY     84  58  40 CALM      30.18F
TEKAMAH        SUNNY     85  60  42 E9        30.17F
WAYNE          SUNNY     83  59  43 NE7       30.20F
$$

NEZ050>053-065>068-078-088>093-232300-
SOUTHEAST NEBRASKA

CITY           SKY/WX    TMP DP  RH WIND       PRES   REMARKS
LINCOLN        MOSUNNY   88  57  34 NE15      30.16F
OMAHA EPPLEY   MOSUNNY   86  58  38 NE10      30.16F
BEATRICE       MOSUNNY   85  61  44 NE8       30.15F
FALLS CITY     SUNNY     85  65  51 NE9       30.13F
NEBRASKA CITY  SUNNY     82  58  44 N7        30.16F
PLATTSMOUTH    SUNNY     84  56  39 E5        30.16F
$$

NEZ044-045-051>053-067-232300-
OMAHA AREA

CITY           SKY/WX    TMP DP  RH WIND       PRES   REMARKS
OMAHA EPPLEY   MOSUNNY   86  58  38 NE10      30.16F
BLAIR          SUNNY     83  55  38 NE8       30.17F HAZE
FREMONT        SUNNY     84  58  40 CALM      30.18F
MILLARD        SUNNY     84  59  42 CALM      30.16F
OFFUTT AFB     SUNNY     85  61  44 NE7       30.16F
PLATTSMOUTH    SUNNY     84  56  39 E5        30.16F
WAHOO          FAIR      84  56  38 NE5       30.17F
$$



USA.gov is the U.S. government's official web portal to all federal, state and local government web resources and services.